Airfield :
LOGIN :

Register | Disclaimer

   EN    FR    IT 

 










Legend :    VFR   Marginal VFR   IFR   Intensive IFR   Very Intensive IFR
Visi :
Ceiling :
>= 8 km
>= 3000ft
5 to 8 km
1000 to 3000 ft
1500m to 5 km
500 to 1000 ft
800 to 1500m
200 to 500 ft
< 800m
< 200 ft
Symbols :   Thunderstorms  Fog  Heavy snow  Heavy precipitations  Wind > 20 kt
SIGMETs :     Misc.  Thunderstorms  Icing  Turbulence  Mountain Waves  Volcanic Ashes







- Airport Elevation : 1249 ft


ETSN - Neuburg AB

CURRENT METAR :
  • 182220Z 17005KT 9999 BKN150 BKN220 18/13 Q1019 BLU

EXPIRED METARs :
  • 182120Z 19007KT 9999 BKN140 BKN220 19/13 Q1019 BLU
  • 182020Z 21007KT 9999 FEW070 BKN140 21/12 Q1019 BLU

TAF TAF ETSN
Valid from the 18 at 23:00 until the 19 at 08:00 UTC


182200Z 1823/1908 25005KT 9999 NSW SCT060 BKN160
PROB30 1823/1901 24015G25KT 4000 SHRA BKN030CB
TEMPO 1903/1906 22003KT 1500 BCFG SCT180 BY ETGL
No reported NOTAMs for that airfield.



MET'MAP, your aeronautical weather chart ! - Copyright ORBIFLY December 2007 - Disclaimer

ORBIFLY MET'MAP TEAM :

Programming & Development : Alexandra Zaïnal
Concept & Development : Baudouin d'Aumeries
Co-Development & Prog : Marc-Olivier Méhu
Technical & hardware support : Manuel Goepfert

Contact : metmap@orbifly.com




SOURCES & CREDITS :

   NOAA